OK2JF-6 Weather Reports


time (UTC)temp
C
wind
direction
speed
KPH
gust
KPH
rain 1hr
cm
rain 24hr
cm
rain mn
cm
humidity
%
barometer
mb
20260502200203 11 49 0.0 1.6 0.00 0.00 0.00 62 1092.0
20260502200003 11 0 0.0 0.0 0.00 0.00 0.00 59 1092.1
20260502195903 11 0 0.0 0.0 0.00 0.00 0.00 59 1092.1
20260502195703 11 0 0.0 0.0 0.00 0.00 0.00 60 1091.9
20260502195603 11 0 0.0 0.0 0.00 0.00 0.00 60 1091.9
20260502195503 11 0 0.0 0.0 0.00 0.00 0.00 58 1092.0
20260502195403 11 0 0.0 0.0 0.00 0.00 0.00 58 1092.3
20260502195305 11 0 0.0 0.0 0.00 0.00 0.00 57 1091.9
20260502195203 11 0 0.0 0.0 0.00 0.00 0.00 57 1091.9
20260502195103 11 0 0.0 0.0 0.00 0.00 0.00 58 1092.1
20260502195003 11 0 0.0 0.0 0.00 0.00 0.00 58 1092.1
20260502194903 11 0 0.0 0.0 0.00 0.00 0.00 59 1092.1
20260502194803 11 0 0.0 0.0 0.00 0.00 0.00 58 1092.0
20260502194703 11 0 0.0 0.0 0.00 0.00 0.00 58 1092.1
20260502194603 11 0 0.0 0.0 0.00 0.00 0.00 58 1091.9
20260502194518 11 0 0.0 0.0 0.00 0.00 0.00 59 1092.0
20260502194403 11 0 0.0 0.0 0.00 0.00 0.00 58 1092.2
20260502194203 11 0 0.0 0.0 0.00 0.00 0.00 58 1091.9
20260502194103 11 0 0.0 0.0 0.00 0.00 0.00 57 1092.0
20260502194003 11 335 0.0 1.6 0.00 0.00 0.00 57 1092.0
20260502193903 11 335 0.0 1.6 0.00 0.00 0.00 57 1092.1
20260502193803 12 335 0.0 1.6 0.00 0.00 0.00 57 1092.1
20260502193703 12 335 0.0 1.6 0.00 0.00 0.00 58 1092.1
20260502193603 12 334 0.0 1.6 0.00 0.00 0.00 57 1092.1
20260502193518 12 332 0.0 1.6 0.00 0.00 0.00 57 1092.2
20260502193503 12 332 0.0 1.6 0.00 0.00 0.00 58 1092.2
20260502193403 12 331 0.0 1.6 0.00 0.00 0.00 56 1092.0
20260502193203 12 331 0.0 1.6 0.00 0.00 0.00 56 1092.1
20260502193103 12 331 0.0 1.6 0.00 0.00 0.00 55 1092.0
20260502193016 12 330 0.0 1.6 0.00 0.00 0.00 55 1092.0
20260502192903 12 327 0.0 1.6 0.00 0.00 0.00 55 1092.1
20260502192703 12 333 0.0 1.6 0.00 0.00 0.00 55 1092.0
20260502192603 12 340 0.0 1.6 0.00 0.00 0.00 55 1091.7
20260502192503 12 343 0.0 1.6 0.00 0.00 0.00 54 1091.9
20260502192403 12 348 0.0 3.2 0.00 0.00 0.00 54 1092.1
20260502192305 12 348 0.0 3.2 0.00 0.00 0.00 55 1092.2
20260502192203 12 347 0.0 3.2 0.00 0.00 0.00 56 1091.8
20260502192103 12 347 0.0 3.2 0.00 0.00 0.00 57 1091.9
20260502192003 12 348 0.0 3.2 0.00 0.00 0.00 56 1091.8
20260502191903 12 353 0.0 3.2 0.00 0.00 0.00 54 1092.1
20260502191803 12 355 0.0 3.2 0.00 0.00 0.00 54 1092.0
20260502191718 12 355 0.0 3.2 0.00 0.00 0.00 54 1092.2
20260502191703 12 355 0.0 3.2 0.00 0.00 0.00 53 1092.2
20260502191603 12 352 0.0 3.2 0.00 0.00 0.00 54 1091.8
20260502191403 12 339 0.0 1.6 0.00 0.00 0.00 52 1092.1
20260502191303 12 339 0.0 1.6 0.00 0.00 0.00 51 1091.8
20260502191203 12 343 0.0 1.6 0.00 0.00 0.00 51 1091.9
20260502191103 12 346 0.0 3.2 0.00 0.00 0.00 51 1091.8
20260502191003 12 354 0.0 3.2 0.00 0.00 0.00 50 1092.0
20260502190803 12 354 0.0 3.2 0.00 0.00 0.00 50 1091.8
20260502190703 12 354 0.0 3.2 0.00 0.00 0.00 50 1091.9
20260502190603 13 354 0.0 3.2 0.00 0.00 0.00 51 1092.0
20260502190503 13 354 0.0 3.2 0.00 0.00 0.00 50 1091.9
20260502190403 13 354 0.0 3.2 0.00 0.00 0.00 51 1091.8
20260502190303 13 354 0.0 3.2 0.00 0.00 0.00 51 1092.0
20260502190217 13 355 0.0 3.2 0.00 0.00 0.00 50 1092.1
20260502190203 13 357 0.0 3.2 0.00 0.00 0.00 50 1092.1
20260502185903 13 0 0.0 0.0 0.00 0.00 0.00 48 1091.9
20260502185803 13 0 0.0 0.0 0.00 0.00 0.00 49 1091.9
20260502185703 13 0 0.0 0.0 0.00 0.00 0.00 49 1091.9
20260502185617 13 0 0.0 0.0 0.00 0.00 0.00 49 1092.0
20260502185603 13 0 0.0 0.0 0.00 0.00 0.00 50 1092.0
20260502185503 13 0 0.0 0.0 0.00 0.00 0.00 47 1091.7
20260502185418 13 0 0.0 0.0 0.00 0.00 0.00 47 1092.1
20260502185305 13 0 0.0 0.0 0.00 0.00 0.00 46 1091.8
20260502185003 13 0 0.0 0.0 0.00 0.00 0.00 45 1091.9
20260502184903 13 0 0.0 0.0 0.00 0.00 0.00 45 1091.9
20260502184803 13 0 0.0 0.0 0.00 0.00 0.00 45 1091.9
20260502184503 14 0 0.0 0.0 0.00 0.00 0.00 45 1091.8
20260502184403 14 0 0.0 0.0 0.00 0.00 0.00 45 1092.0
20260502184303 14 0 0.0 0.0 0.00 0.00 0.00 43 1092.0
20260502184203 14 0 0.0 0.0 0.00 0.00 0.00 44 1091.9
20260502183903 14 0 0.0 0.0 0.00 0.00 0.00 42 1091.9
20260502183803 15 146 0.0 1.6 0.00 0.00 0.00 42 1091.8
20260502183703 15 147 0.0 1.6 0.00 0.00 0.00 42 1091.8
20260502183603 15 147 0.0 1.6 0.00 0.00 0.00 42 1091.9
20260502183517 15 148 0.0 1.6 0.00 0.00 0.00 42 1091.8
20260502183503 15 148 0.0 1.6 0.00 0.00 0.00 41 1091.8
20260502183403 15 147 0.0 1.6 0.00 0.00 0.00 41 1091.7
20260502183003 15 147 0.0 1.6 0.00 0.00 0.00 41 1091.8
20260502182803 15 147 0.0 1.6 0.00 0.00 0.00 41 1091.9
20260502182703 15 147 0.0 1.6 0.00 0.00 0.00 41 1091.8
20260502182603 15 131 0.0 1.6 0.00 0.00 0.00 40 1091.7
20260502182418 16 105 0.0 1.6 0.00 0.00 0.00 40 1091.6
20260502182304 16 95 0.0 1.6 0.00 0.00 0.00 39 1092.0
20260502182103 16 95 0.0 1.6 0.00 0.00 0.00 39 1091.6
20260502182003 16 95 0.0 1.6 0.00 0.00 0.00 39 1091.9
20260502181903 16 95 0.0 1.6 0.00 0.00 0.00 39 1091.8
20260502181803 16 95 0.0 1.6 0.00 0.00 0.00 39 1091.8
20260502181703 16 95 0.0 1.6 0.00 0.00 0.00 39 1091.7
20260502181603 16 89 0.0 1.6 0.00 0.00 0.00 39 1091.7
20260502181503 16 111 0.0 1.6 0.00 0.00 0.00 39 1091.9
20260502181403 16 119 0.0 1.6 0.00 0.00 0.00 39 1091.7
20260502181303 16 124 0.0 3.2 0.00 0.00 0.00 38 1091.5
20260502181203 16 124 0.0 3.2 0.00 0.00 0.00 38 1091.7
20260502181103 16 124 0.0 3.2 0.00 0.00 0.00 38 1091.7
20260502180903 16 128 0.0 4.8 0.00 0.00 0.00 38 1091.6
20260502180817 16 128 0.0 4.8 0.00 0.00 0.00 38 1091.7
20260502180803 16 128 1.6 4.8 0.00 0.00 0.00 38 1091.7
20260502180703 16 127 1.6 4.8 0.00 0.00 0.00 38 1091.7
20260502180503 16 126 1.6 4.8 0.00 0.00 0.00 37 1091.6
20260502180403 17 124 1.6 4.8 0.00 0.00 0.00 37 1091.4
20260502180303 17 124 1.6 4.8 0.00 0.00 0.00 37 1091.6
20260502180203 17 121 1.6 4.8 0.00 0.00 0.00 36 1091.6
20260502170517 19 143 3.2 9.7 0.00 0.00 0.00 36 1091.9
20260502170503 19 148 3.2 9.7 0.00 0.00 0.00 36 1091.9
20260502170216 19 141 3.2 12.9 0.00 0.00 0.00 35 1091.7
20260502170203 19 141 4.8 12.9 0.00 0.00 0.00 35 1091.7
20260502170103 19 142 4.8 12.9 0.00 0.00 0.00 36 1091.9
20260502164318 20 144 4.8 11.3 0.00 0.00 0.00 34 1092.1
20260502164303 20 145 4.8 11.3 0.00 0.00 0.00 34 1092.1
20260502164218 20 145 4.8 11.3 0.00 0.00 0.00 34 1091.9
20260502164203 20 146 4.8 11.3 0.00 0.00 0.00 34 1091.9
20260502164117 20 146 4.8 11.3 0.00 0.00 0.00 34 1091.9
20260502163803 20 142 6.4 11.3 0.00 0.00 0.00 33 1091.9
20260502163703 20 132 6.4 11.3 0.00 0.00 0.00 34 1092.1
20260502163603 20 128 4.8 11.3 0.00 0.00 0.00 33 1092.2
20260502163503 20 122 4.8 9.7 0.00 0.00 0.00 34 1092.1
20260502163403 20 120 4.8 9.7 0.00 0.00 0.00 34 1091.9
20260502163303 20 114 3.2 9.7 0.00 0.00 0.00 33 1092.1
20260502163218 20 109 3.2 9.7 0.00 0.00 0.00 33 1092.2
20260502163203 20 107 3.2 9.7 0.00 0.00 0.00 33 1092.2
20260502163103 20 104 3.2 9.7 0.00 0.00 0.00 33 1092.1
20260502162903 20 96 3.2 12.9 0.00 0.00 0.00 33 1092.2
20260502162803 20 101 3.2 12.9 0.00 0.00 0.00 32 1092.1
20260502162703 20 107 3.2 12.9 0.00 0.00 0.00 32 1092.3
20260502162603 20 109 3.2 12.9 0.00 0.00 0.00 32 1092.0
20260502162503 20 107 3.2 12.9 0.00 0.00 0.00 32 1092.1
20260502162403 20 108 4.8 12.9 0.00 0.00 0.00 32 1092.3
20260502162304 20 104 4.8 12.9 0.00 0.00 0.00 32 1092.2
20260502162218 20 102 4.8 12.9 0.00 0.00 0.00 32 1092.2
20260502162203 20 102 4.8 12.9 0.00 0.00 0.00 32 1092.2
20260502162103 20 102 4.8 12.9 0.00 0.00 0.00 32 1092.3
20260502161903 20 118 4.8 11.3 0.00 0.00 0.00 32 1092.3
20260502161803 20 126 4.8 11.3 0.00 0.00 0.00 32 1092.3
20260502161703 20 124 4.8 11.3 0.00 0.00 0.00 32 1092.0
20260502161603 20 125 6.4 12.9 0.00 0.00 0.00 32 1092.5
20260502161503 20 125 6.4 12.9 0.00 0.00 0.00 33 1092.1
20260502161403 20 125 6.4 12.9 0.00 0.00 0.00 33 1092.2
20260502161303 20 133 4.8 12.9 0.00 0.00 0.00 33 1092.5
20260502161203 20 135 4.8 12.9 0.00 0.00 0.00 33 1092.3
20260502161103 20 131 4.8 12.9 0.00 0.00 0.00 33 1092.3
20260502161003 20 121 6.4 12.9 0.00 0.00 0.00 33 1092.2
20260502160903 20 115 4.8 12.9 0.00 0.00 0.00 32 1092.2
20260502160803 20 110 4.8 12.9 0.00 0.00 0.00 32 1092.1
20260502160703 20 111 4.8 12.9 0.00 0.00 0.00 32 1092.2
20260502160603 20 111 4.8 11.3 0.00 0.00 0.00 32 1092.5
20260502160503 20 117 4.8 11.3 0.00 0.00 0.00 32 1092.6
20260502160403 20 120 4.8 11.3 0.00 0.00 0.00 32 1092.1
20260502160303 20 122 4.8 11.3 0.00 0.00 0.00 32 1092.3
20260502152305 21 72 4.8 14.5 0.00 0.00 0.00 31 1092.7
20260502152203 21 73 6.4 14.5 0.00 0.00 0.00 31 1092.8
20260502152103 21 76 6.4 14.5 0.00 0.00 0.00 32 1092.8
20260502151903 21 81 6.4 14.5 0.00 0.00 0.00 31 1092.8
20260502151803 21 83 6.4 14.5 0.00 0.00 0.00 31 1093.0
20260502151717 21 83 6.4 14.5 0.00 0.00 0.00 31 1093.0
20260502151703 21 84 6.4 14.5 0.00 0.00 0.00 31 1093.0
20260502151603 21 85 6.4 14.5 0.00 0.00 0.00 31 1093.0
20260502151403 21 84 4.8 14.5 0.00 0.00 0.00 31 1093.1
20260502151303 21 79 4.8 11.3 0.00 0.00 0.00 31 1093.1
20260502151203 21 80 4.8 11.3 0.00 0.00 0.00 31 1092.9
20260502151103 21 78 4.8 11.3 0.00 0.00 0.00 31 1093.2
20260502151003 21 76 4.8 11.3 0.00 0.00 0.00 31 1093.3
20260502150903 21 75 4.8 11.3 0.00 0.00 0.00 31 1093.0
20260502150803 21 74 4.8 11.3 0.00 0.00 0.00 31 1093.1
20260502150703 21 82 3.2 11.3 0.00 0.00 0.00 31 1093.0
20260502150603 21 84 3.2 11.3 0.00 0.00 0.00 31 1093.3
20260502150518 21 89 3.2 11.3 0.00 0.00 0.00 31 1093.1
20260502150503 21 90 3.2 11.3 0.00 0.00 0.00 31 1093.1
20260502150403 21 91 3.2 11.3 0.00 0.00 0.00 31 1093.1
20260502150203 21 308 3.2 11.3 0.00 0.00 0.00 31 1093.1
20260502150103 21 275 3.2 11.3 0.00 0.00 0.00 31 1093.1
20260502140118 21 104 4.8 12.9 0.00 0.00 0.00 31 1093.5
20260502130703 21 133 4.8 16.1 0.00 0.00 0.00 32 1094.4
20260502130603 21 127 4.8 16.1 0.00 0.00 0.00 32 1094.3
20260502130517 21 127 4.8 17.7 0.00 0.00 0.00 32 1094.1
20260502130503 21 128 4.8 17.7 0.00 0.00 0.00 32 1094.1
20260502130403 21 135 6.4 17.7 0.00 0.00 0.00 32 1094.6
20260502130217 21 141 4.8 17.7 0.00 0.00 0.00 31 1094.1
20260502130203 21 141 4.8 17.7 0.00 0.00 0.00 31 1094.1
20260502130103 21 146 4.8 17.7 0.00 0.00 0.00 31 1094.5
20260502123803 21 249 4.8 9.7 0.00 0.00 0.00 30 1094.9
20260502123718 21 245 4.8 9.7 0.00 0.00 0.00 30 1094.7
20260502123703 21 242 4.8 9.7 0.00 0.00 0.00 30 1094.7
20260502123603 21 229 4.8 11.3 0.00 0.00 0.00 30 1094.9
20260502123403 21 201 4.8 11.3 0.00 0.00 0.00 30 1094.7
20260502123303 21 184 4.8 11.3 0.00 0.00 0.00 31 1094.7
20260502123203 21 174 4.8 11.3 0.00 0.00 0.00 31 1094.9
20260502123103 22 155 4.8 11.3 0.00 0.00 0.00 30 1094.7
20260502123018 22 151 4.8 11.3 0.00 0.00 0.00 29 1094.8
20260502123003 22 151 4.8 11.3 0.00 0.00 0.00 29 1094.8
20260502122903 21 146 4.8 11.3 0.00 0.00 0.00 33 1094.6
20260502122703 21 153 4.8 11.3 0.00 0.00 0.00 31 1094.8
20260502122618 21 151 3.2 9.7 0.00 0.00 0.00 31 1094.7
20260502122603 21 152 3.2 9.7 0.00 0.00 0.00 31 1094.7
20260502122517 21 157 3.2 9.7 0.00 0.00 0.00 31 1094.7
20260502122503 21 163 3.2 9.7 0.00 0.00 0.00 31 1094.7
20260502122318 21 192 3.2 11.3 0.00 0.00 0.00 30 1095.1
20260502122217 21 198 4.8 11.3 0.00 0.00 0.00 30 1094.7
20260502122203 21 201 4.8 11.3 0.00 0.00 0.00 30 1094.7
20260502122117 21 204 4.8 11.3 0.00 0.00 0.00 30 1094.7
20260502121803 21 182 6.4 16.1 0.00 0.00 0.00 30 1094.8
20260502121718 21 170 6.4 16.1 0.00 0.00 0.00 30 1094.9
20260502121703 22 165 6.4 16.1 0.00 0.00 0.00 31 1094.9
20260502121603 22 159 6.4 16.1 0.00 0.00 0.00 31 1094.9
20260502121403 22 144 6.4 17.7 0.00 0.00 0.00 31 1095.0
20260502121303 22 140 6.4 17.7 0.00 0.00 0.00 31 1095.0
20260502121203 22 137 6.4 17.7 0.00 0.00 0.00 31 1094.9
20260502121103 22 133 6.4 17.7 0.00 0.00 0.00 31 1095.0
20260502121003 22 130 8.0 17.7 0.00 0.00 0.00 31 1094.8
20260502120903 22 127 6.4 17.7 0.00 0.00 0.00 31 1094.9
20260502120803 22 132 6.4 17.7 0.00 0.00 0.00 31 1094.9
20260502120718 22 138 6.4 17.7 0.00 0.00 0.00 32 1095.0
20260502120703 22 140 6.4 17.7 0.00 0.00 0.00 32 1095.0
20260502120603 22 146 6.4 17.7 0.00 0.00 0.00 32 1094.9
20260502120517 22 152 6.4 17.7 0.00 0.00 0.00 31 1095.0
20260502120403 22 154 4.8 14.5 0.00 0.00 0.00 30 1094.8
20260502120217 22 150 4.8 14.5 0.00 0.00 0.00 31 1095.0
20260502120203 22 152 4.8 14.5 0.00 0.00 0.00 31 1095.0
20260502115903 22 156 4.8 16.1 0.00 0.00 0.00 30 1095.0
20260502115803 22 153 4.8 16.1 0.00 0.00 0.00 30 1095.2
20260502115703 22 143 4.8 16.1 0.00 0.00 0.00 30 1094.9
20260502115603 22 129 4.8 16.1 0.00 0.00 0.00 30 1095.1
20260502115503 22 120 4.8 16.1 0.00 0.00 0.00 30 1094.9
20260502115403 22 127 4.8 16.1 0.00 0.00 0.00 31 1095.0
20260502115318 22 134 4.8 16.1 0.00 0.00 0.00 31 1095.0
20260502115305 22 139 4.8 16.1 0.00 0.00 0.00 31 1095.0
20260502115203 22 172 4.8 16.1 0.00 0.00 0.00 31 1095.2
20260502115018 22 273 4.8 12.9 0.00 0.00 0.00 29 1095.0
20260502115003 22 273 3.2 11.3 0.00 0.00 0.00 29 1095.0
20260502114903 22 272 3.2 11.3 0.00 0.00 0.00 28 1095.3
20260502114717 22 263 3.2 11.3 0.00 0.00 0.00 28 1095.0
20260502114703 22 261 3.2 11.3 0.00 0.00 0.00 28 1095.0
20260502114318 23 272 3.2 11.3 0.00 0.00 0.00 26 1095.2
20260502114303 23 273 3.2 11.3 0.00 0.00 0.00 26 1095.2
20260502114203 23 299 3.2 6.4 0.00 0.00 0.00 27 1095.2
20260502114003 23 357 3.2 6.4 0.00 0.00 0.00 26 1095.2
20260502113903 23 12 3.2 6.4 0.00 0.00 0.00 27 1095.3
20260502113803 24 20 3.2 6.4 0.00 0.00 0.00 26 1095.3
20260502113718 24 21 3.2 6.4 0.00 0.00 0.00 27 1095.4
20260502113703 24 20 3.2 6.4 0.00 0.00 0.00 27 1095.4
20260502113603 24 26 3.2 9.7 0.00 0.00 0.00 27 1095.4
20260502113403 24 43 3.2 12.9 0.00 0.00 0.00 28 1095.3
20260502113303 23 49 4.8 12.9 0.00 0.00 0.00 28 1095.3
20260502113216 23 56 4.8 12.9 0.00 0.00 0.00 28 1095.5
20260502113203 23 57 4.8 12.9 0.00 0.00 0.00 28 1095.5
20260502113103 23 61 4.8 12.9 0.00 0.00 0.00 28 1095.3
20260502113018 23 67 4.8 12.9 0.00 0.00 0.00 29 1095.2
20260502112903 23 71 4.8 12.9 0.00 0.00 0.00 28 1095.3
20260502112717 23 69 6.4 12.9 0.00 0.00 0.00 27 1095.2
20260502112603 23 70 6.4 12.9 0.00 0.00 0.00 29 1095.2
20260502112517 23 73 6.4 12.9 0.00 0.00 0.00 28 1095.2
20260502112403 23 73 6.4 12.9 0.00 0.00 0.00 28 1095.4
20260502112203 23 70 4.8 12.9 0.00 0.00 0.00 29 1095.3
20260502112103 23 67 4.8 12.9 0.00 0.00 0.00 28 1095.3
20260502112003 24 59 4.8 12.9 0.00 0.00 0.00 29 1095.5
20260502111903 24 49 4.8 12.9 0.00 0.00 0.00 30 1095.6
20260502111803 23 45 4.8 12.9 0.00 0.00 0.00 30 1095.3
20260502111703 23 39 4.8 12.9 0.00 0.00 0.00 29 1095.5
20260502111603 23 34 4.8 12.9 0.00 0.00 0.00 28 1095.5
20260502111503 23 39 4.8 12.9 0.00 0.00 0.00 28 1095.4
20260502111403 23 53 4.8 12.9 0.00 0.00 0.00 28 1095.3
20260502111303 23 58 4.8 11.3 0.00 0.00 0.00 28 1095.5
20260502111203 24 65 4.8 11.3 0.00 0.00 0.00 28 1095.2
20260502111117 24 67 4.8 11.3 0.00 0.00 0.00 28 1095.3
20260502111103 24 66 4.8 11.3 0.00 0.00 0.00 29 1095.3
20260502111003 24 73 4.8 11.3 0.00 0.00 0.00 29 1095.6
20260502110803 24 88 4.8 11.3 0.00 0.00 0.00 31 1095.5
20260502110703 24 97 4.8 11.3 0.00 0.00 0.00 30 1095.3
20260502110603 23 92 4.8 11.3 0.00 0.00 0.00 30 1095.8
20260502110417 23 74 4.8 11.3 0.00 0.00 0.00 29 1095.8
20260502110403 23 72 4.8 11.3 0.00 0.00 0.00 29 1095.8
20260502110318 23 72 4.8 11.3 0.00 0.00 0.00 29 1095.4
20260502110303 23 74 4.8 11.3 0.00 0.00 0.00 29 1095.4
20260502110003 23 101 3.2 9.7 0.00 0.00 0.00 30 1095.6
20260502105903 23 131 3.2 11.3 0.00 0.00 0.00 31 1095.6
20260502105803 23 157 4.8 11.3 0.00 0.00 0.00 30 1095.7
20260502105703 23 158 4.8 11.3 0.00 0.00 0.00 28 1095.6
20260502105603 23 148 4.8 12.9 0.00 0.00 0.00 29 1095.7
20260502105503 24 139 6.4 14.5 0.00 0.00 0.00 29 1095.5
20260502105403 24 138 6.4 14.5 0.00 0.00 0.00 31 1095.6
20260502105306 23 143 6.4 16.1 0.00 0.00 0.00 32 1095.6
20260502105203 23 151 6.4 16.1 0.00 0.00 0.00 31 1095.7
20260502105103 23 150 6.4 16.1 0.00 0.00 0.00 31 1095.7
20260502105003 24 148 6.4 16.1 0.00 0.00 0.00 31 1095.9
20260502104903 24 142 6.4 16.1 0.00 0.00 0.00 31 1095.5
20260502104803 24 139 6.4 16.1 0.00 0.00 0.00 32 1095.9
20260502104703 24 135 4.8 16.1 0.00 0.00 0.00 32 1095.7
20260502104603 24 139 4.8 16.1 0.00 0.00 0.00 32 1095.8
20260502104503 24 142 4.8 16.1 0.00 0.00 0.00 31 1095.6
20260502104403 24 138 3.2 16.1 0.00 0.00 0.00 31 1095.8
20260502104303 24 102 3.2 9.7 0.00 0.00 0.00 31 1095.9
20260502104218 24 71 3.2 9.7 0.00 0.00 0.00 31 1095.8
20260502104203 24 57 3.2 9.7 0.00 0.00 0.00 31 1095.8
20260502104103 24 34 3.2 6.4 0.00 0.00 0.00 30 1096.0
20260502103903 24 22 3.2 6.4 0.00 0.00 0.00 30 1095.7
20260502103803 24 34 3.2 6.4 0.00 0.00 0.00 30 1095.8
20260502103703 24 39 3.2 6.4 0.00 0.00 0.00 30 1095.9
20260502103603 24 41 3.2 9.7 0.00 0.00 0.00 30 1095.8
20260502103503 23 49 3.2 9.7 0.00 0.00 0.00 29 1095.7
20260502103308 23 57 3.2 9.7 0.00 0.00 0.00 32 1095.8
20260502103203 23 68 3.2 9.7 0.00 0.00 0.00 31 1095.8
20260502103117 23 85 3.2 12.9 0.00 0.00 0.00 31 1095.9
20260502103103 23 89 3.2 12.9 0.00 0.00 0.00 31 1095.9
20260502103003 23 95 4.8 12.9 0.00 0.00 0.00 30 1096.0
20260502102918 23 97 4.8 12.9 0.00 0.00 0.00 30 1095.9
20260502102803 23 94 4.8 12.9 0.00 0.00 0.00 30 1095.9
20260502102603 23 95 4.8 12.9 0.00 0.00 0.00 29 1095.8
20260502102503 23 94 6.4 12.9 0.00 0.00 0.00 28 1096.0
20260502102404 23 97 6.4 12.9 0.00 0.00 0.00 31 1095.9
20260502102203 23 93 6.4 14.5 0.00 0.00 0.00 32 1096.2
20260502102103 23 90 6.4 14.5 0.00 0.00 0.00 31 1096.3
20260502102003 23 88 6.4 14.5 0.00 0.00 0.00 31 1096.0
20260502101903 23 85 6.4 14.5 0.00 0.00 0.00 29 1096.2
20260502101803 23 79 6.4 14.5 0.00 0.00 0.00 30 1096.0
20260502101703 23 79 4.8 14.5 0.00 0.00 0.00 31 1096.3
20260502101603 23 80 4.8 14.5 0.00 0.00 0.00 31 1095.9
20260502101503 23 80 4.8 14.5 0.00 0.00 0.00 32 1096.2
20260502101403 23 76 4.8 14.5 0.00 0.00 0.00 32 1095.8
20260502101303 23 71 4.8 14.5 0.00 0.00 0.00 32 1095.9
20260502101203 23 70 3.2 9.7 0.00 0.00 0.00 32 1096.3
20260502101003 23 65 3.2 9.7 0.00 0.00 0.00 32 1096.3
20260502100903 23 65 3.2 9.7 0.00 0.00 0.00 31 1096.2
20260502100803 23 74 3.2 9.7 0.00 0.00 0.00 30 1096.0
20260502100703 23 76 3.2 9.7 0.00 0.00 0.00 30 1096.2
20260502100603 23 68 3.2 9.7 0.00 0.00 0.00 30 1096.0
20260502100518 23 66 3.2 9.7 0.00 0.00 0.00 31 1096.0
20260502100503 23 69 3.2 14.5 0.00 0.00 0.00 31 1096.0
20260502100403 23 81 4.8 16.1 0.00 0.00 0.00 29 1096.2
20260502100203 23 91 4.8 16.1 0.00 0.00 0.00 31 1096.3
20260502091503 22 145 6.4 16.1 0.00 0.00 0.00 34 1096.5
20260502091418 22 155 6.4 16.1 0.00 0.00 0.00 33 1096.6
20260502091403 22 161 6.4 16.1 0.00 0.00 0.00 33 1096.6
20260502091303 21 174 4.8 14.5 0.00 0.00 0.00 34 1096.5
20260502091103 21 177 4.8 12.9 0.00 0.00 0.00 34 1096.3
20260502091003 21 179 4.8 12.9 0.00 0.00 0.00 33 1096.6
20260502090903 21 179 4.8 12.9 0.00 0.00 0.00 33 1096.7
20260502090803 21 186 4.8 12.9 0.00 0.00 0.00 34 1096.8
20260502090703 21 187 4.8 12.9 0.00 0.00 0.00 34 1096.5
20260502090603 21 190 4.8 12.9 0.00 0.00 0.00 34 1096.6
20260502090503 21 197 4.8 12.9 0.00 0.00 0.00 34 1096.7
20260502090403 21 190 4.8 12.9 0.00 0.00 0.00 34 1096.8
20260502090303 21 189 4.8 12.9 0.00 0.00 0.00 35 1096.6
20260502090203 21 197 4.8 12.9 0.00 0.00 0.00 35 1096.8
20260502080103 23 101 3.2 9.7 0.00 0.00 0.00 32 1096.9
20260502071503 21 104 4.8 12.9 0.00 0.00 0.00 38 1097.1
20260502071403 21 105 4.8 12.9 0.00 0.00 0.00 37 1097.0
20260502071303 21 104 4.8 12.9 0.00 0.00 0.00 40 1097.0
20260502071203 21 103 4.8 12.9 0.00 0.00 0.00 39 1097.1
20260502071103 21 103 4.8 12.9 0.00 0.00 0.00 38 1097.0
20260502071003 20 102 4.8 12.9 0.00 0.00 0.00 39 1097.1
20260502070903 20 105 4.8 12.9 0.00 0.00 0.00 39 1097.0
20260502070803 20 111 4.8 12.9 0.00 0.00 0.00 40 1097.0
20260502070718 20 118 4.8 12.9 0.00 0.00 0.00 40 1096.9
20260502070703 20 120 4.8 12.9 0.00 0.00 0.00 40 1096.9
20260502070603 20 122 4.8 12.9 0.00 0.00 0.00 41 1096.9
20260502070403 19 137 4.8 12.9 0.00 0.00 0.00 42 1096.8
20260502070303 19 149 3.2 12.9 0.00 0.00 0.00 43 1096.9
20260502070203 19 159 3.2 12.9 0.00 0.00 0.00 42 1096.9
20260502070003 19 164 3.2 9.7 0.00 0.00 0.00 40 1097.1
20260502065903 19 159 4.8 9.7 0.00 0.00 0.00 40 1097.1
20260502065803 19 158 3.2 9.7 0.00 0.00 0.00 40 1097.1
20260502065703 19 155 3.2 9.7 0.00 0.00 0.00 40 1097.0
20260502065603 19 155 3.2 9.7 0.00 0.00 0.00 40 1096.9
20260502065503 19 153 3.2 9.7 0.00 0.00 0.00 41 1097.0
20260502065403 20 155 3.2 9.7 0.00 0.00 0.00 40 1097.2
20260502065306 20 154 3.2 9.7 0.00 0.00 0.00 42 1096.8
20260502065217 20 149 1.6 9.7 0.00 0.00 0.00 42 1097.0
20260502065203 20 150 1.6 9.7 0.00 0.00 0.00 42 1097.0
20260502065117 19 160 1.6 9.7 0.00 0.00 0.00 44 1096.9
20260502065103 19 164 1.6 9.7 0.00 0.00 0.00 44 1096.9
20260502064803 18 202 0.0 3.2 0.00 0.00 0.00 47 1097.0
20260502064703 18 201 0.0 3.2 0.00 0.00 0.00 46 1097.0
20260502064618 18 201 0.0 3.2 0.00 0.00 0.00 47 1097.1
20260502064603 18 201 0.0 3.2 0.00 0.00 0.00 47 1097.1
20260502064503 18 199 0.0 3.2 0.00 0.00 0.00 48 1097.0
20260502064303 17 192 0.0 1.6 0.00 0.00 0.00 48 1097.1
20260502064203 17 180 0.0 1.6 0.00 0.00 0.00 48 1097.1
20260502064103 17 0 0.0 0.0 0.00 0.00 0.00 47 1096.9
20260502064003 17 0 0.0 0.0 0.00 0.00 0.00 47 1097.0
20260502063903 17 0 0.0 0.0 0.00 0.00 0.00 52 1097.2
20260502063803 17 0 0.0 0.0 0.00 0.00 0.00 50 1097.2
20260502063703 17 0 0.0 0.0 0.00 0.00 0.00 53 1096.8
20260502063618 17 0 0.0 0.0 0.00 0.00 0.00 53 1097.1
20260502063603 17 0 0.0 0.0 0.00 0.00 0.00 53 1097.1
20260502063503 16 0 0.0 0.0 0.00 0.00 0.00 53 1096.8
20260502063303 16 0 0.0 0.0 0.00 0.00 0.00 51 1096.9
20260502063203 16 0 0.0 0.0 0.00 0.00 0.00 53 1096.9
20260502063103 15 0 0.0 0.0 0.00 0.00 0.00 53 1097.1
20260502063003 15 0 0.0 0.0 0.00 0.00 0.00 52 1097.1
20260502062903 15 0 0.0 0.0 0.00 0.00 0.00 52 1096.9
20260502062803 15 0 0.0 0.0 0.00 0.00 0.00 53 1097.1
20260502062718 15 0 0.0 0.0 0.00 0.00 0.00 55 1097.0
20260502062603 15 0 0.0 0.0 0.00 0.00 0.00 55 1097.1
20260502062403 15 0 0.0 0.0 0.00 0.00 0.00 58 1096.9
20260502062306 14 0 0.0 0.0 0.00 0.00 0.00 62 1097.1
20260502062203 14 0 0.0 0.0 0.00 0.00 0.00 63 1097.3
20260502062018 14 0 0.0 0.0 0.00 0.00 0.00 64 1096.9
20260502062003 13 0 0.0 0.0 0.00 0.00 0.00 64 1096.9
20260502061903 13 0 0.0 0.0 0.00 0.00 0.00 65 1097.1
20260502061703 13 0 0.0 0.0 0.00 0.00 0.00 66 1097.1
20260502061618 13 0 0.0 0.0 0.00 0.00 0.00 66 1097.3
20260502061603 12 0 0.0 0.0 0.00 0.00 0.00 67 1097.3
20260502061517 12 0 0.0 0.0 0.00 0.00 0.00 67 1097.1
20260502061203 12 0 0.0 0.0 0.00 0.00 0.00 65 1097.2
20260502061103 11 0 0.0 0.0 0.00 0.00 0.00 65 1097.0
20260502061003 11 0 0.0 0.0 0.00 0.00 0.00 67 1097.0
20260502060903 11 0 0.0 0.0 0.00 0.00 0.00 69 1097.0
20260502060803 11 0 0.0 0.0 0.00 0.00 0.00 69 1097.0
20260502060703 11 0 0.0 0.0 0.00 0.00 0.00 69 1097.0
20260502060603 11 0 0.0 0.0 0.00 0.00 0.00 70 1097.0
20260502060503 11 0 0.0 0.0 0.00 0.00 0.00 70 1097.0
20260502060403 11 0 0.0 0.0 0.00 0.00 0.00 71 1097.0
20260502060318 10 0 0.0 0.0 0.00 0.00 0.00 71 1097.0
20260502060303 10 0 0.0 0.0 0.00 0.00 0.00 71 1097.0
20260502060203 10 0 0.0 0.0 0.00 0.00 0.00 71 1097.2
20260502060003 10 0 0.0 0.0 0.00 0.00 0.00 70 1097.3
20260502055903 10 0 0.0 0.0 0.00 0.00 0.00 70 1097.2
20260502055803 10 0 0.0 0.0 0.00 0.00 0.00 70 1097.1
20260502055703 10 0 0.0 0.0 0.00 0.00 0.00 70 1096.9
20260502055603 10 0 0.0 0.0 0.00 0.00 0.00 70 1097.0
20260502055503 10 0 0.0 0.0 0.00 0.00 0.00 69 1096.9
20260502055403 10 0 0.0 0.0 0.00 0.00 0.00 70 1097.0
20260502055305 10 0 0.0 0.0 0.00 0.00 0.00 72 1097.0
20260502055203 9 0 0.0 0.0 0.00 0.00 0.00 73 1097.2
20260502055117 9 0 0.0 0.0 0.00 0.00 0.00 74 1097.0
20260502055103 9 0 0.0 0.0 0.00 0.00 0.00 74 1097.0
20260502054803 9 0 0.0 0.0 0.00 0.00 0.00 73 1097.0
20260502054703 9 0 0.0 0.0 0.00 0.00 0.00 73 1097.0
20260502054503 8 0 0.0 0.0 0.00 0.00 0.00 74 1097.0
20260502054403 8 0 0.0 0.0 0.00 0.00 0.00 75 1097.0
20260502054317 8 0 0.0 0.0 0.00 0.00 0.00 75 1097.2
20260502054303 8 0 0.0 0.0 0.00 0.00 0.00 75 1097.2
20260502054203 8 0 0.0 0.0 0.00 0.00 0.00 75 1097.0
20260502054003 8 0 0.0 0.0 0.00 0.00 0.00 76 1097.1
20260502053903 8 0 0.0 0.0 0.00 0.00 0.00 76 1097.1
20260502053803 8 0 0.0 0.0 0.00 0.00 0.00 76 1097.1
20260502053703 8 0 0.0 0.0 0.00 0.00 0.00 77 1097.0
20260502053603 8 0 0.0 0.0 0.00 0.00 0.00 75 1097.0
20260502053503 8 0 0.0 0.0 0.00 0.00 0.00 77 1096.9
20260502053405 8 0 0.0 0.0 0.00 0.00 0.00 77 1097.1
20260502053303 8 0 0.0 0.0 0.00 0.00 0.00 78 1097.0
20260502053203 8 0 0.0 0.0 0.00 0.00 0.00 78 1096.9
20260502053103 7 0 0.0 0.0 0.00 0.00 0.00 78 1096.7
20260502053003 7 0 0.0 0.0 0.00 0.00 0.00 79 1097.2
20260502052903 7 0 0.0 0.0 0.00 0.00 0.00 78 1096.8
20260502052803 7 0 0.0 0.0 0.00 0.00 0.00 79 1097.0
20260502052703 7 0 0.0 0.0 0.00 0.00 0.00 79 1096.9
20260502052603 7 0 0.0 0.0 0.00 0.00 0.00 79 1096.8
20260502052403 7 0 0.0 0.0 0.00 0.00 0.00 80 1096.9
20260502052306 7 0 0.0 0.0 0.00 0.00 0.00 80 1096.9
20260502052203 7 0 0.0 0.0 0.00 0.00 0.00 81 1097.0
20260502052103 7 0 0.0 0.0 0.00 0.00 0.00 81 1097.1
20260502052003 7 0 0.0 0.0 0.00 0.00 0.00 81 1096.8
20260502051903 7 0 0.0 0.0 0.00 0.00 0.00 81 1097.0
20260502051803 6 0 0.0 0.0 0.00 0.00 0.00 81 1097.0
20260502051703 6 0 0.0 0.0 0.00 0.00 0.00 81 1097.2
20260502051603 6 0 0.0 0.0 0.00 0.00 0.00 81 1097.0
20260502051503 6 0 0.0 0.0 0.00 0.00 0.00 81 1097.0
20260502051403 6 0 0.0 0.0 0.00 0.00 0.00 81 1097.1
20260502051103 6 0 0.0 0.0 0.00 0.00 0.00 81 1096.9
20260502051003 6 0 0.0 0.0 0.00 0.00 0.00 82 1097.2
20260502050903 6 0 0.0 0.0 0.00 0.00 0.00 82 1097.0
20260502050803 6 0 0.0 0.0 0.00 0.00 0.00 82 1097.0
20260502050703 6 0 0.0 0.0 0.00 0.00 0.00 82 1097.0
20260502050603 6 0 0.0 0.0 0.00 0.00 0.00 82 1096.9
20260502050503 6 0 0.0 0.0 0.00 0.00 0.00 82 1096.8
20260502050403 6 0 0.0 0.0 0.00 0.00 0.00 82 1096.8
20260502050303 6 0 0.0 0.0 0.00 0.00 0.00 82 1096.8
20260502050203 6 0 0.0 0.0 0.00 0.00 0.00 82 1096.9
20260502050003 6 0 0.0 0.0 0.00 0.00 0.00 82 1096.9
20260502045903 6 0 0.0 0.0 0.00 0.00 0.00 81 1096.9
20260502045818 6 0 0.0 0.0 0.00 0.00 0.00 81 1096.9
20260502045803 6 0 0.0 0.0 0.00 0.00 0.00 81 1096.9
20260502045703 6 0 0.0 0.0 0.00 0.00 0.00 81 1096.9
20260502045503 6 0 0.0 0.0 0.00 0.00 0.00 83 1097.1
20260502045403 6 0 0.0 0.0 0.00 0.00 0.00 84 1097.0
20260502045317 6 0 0.0 0.0 0.00 0.00 0.00 84 1097.1
20260502045305 6 0 0.0 0.0 0.00 0.00 0.00 84 1097.1
20260502045203 6 0 0.0 0.0 0.00 0.00 0.00 84 1096.7
20260502045003 6 0 0.0 0.0 0.00 0.00 0.00 84 1097.2
20260502044903 6 0 0.0 0.0 0.00 0.00 0.00 85 1097.2
20260502044803 6 0 0.0 0.0 0.00 0.00 0.00 85 1097.0
20260502044703 6 0 0.0 0.0 0.00 0.00 0.00 87 1096.9
20260502044603 5 0 0.0 0.0 0.00 0.00 0.00 86 1096.9
20260502044504 5 0 0.0 0.0 0.00 0.00 0.00 86 1097.1
20260502044403 5 0 0.0 0.0 0.00 0.00 0.00 86 1097.0
20260502044303 5 0 0.0 0.0 0.00 0.00 0.00 86 1096.9
20260502044203 5 0 0.0 0.0 0.00 0.00 0.00 86 1096.9
20260502044103 5 0 0.0 0.0 0.00 0.00 0.00 86 1096.7
20260502044003 5 0 0.0 0.0 0.00 0.00 0.00 86 1097.0
20260502043703 4 0 0.0 0.0 0.00 0.00 0.00 88 1096.7
20260502043603 4 0 0.0 0.0 0.00 0.00 0.00 89 1096.9
20260502043503 4 0 0.0 0.0 0.00 0.00 0.00 89 1096.7
20260502043403 3 0 0.0 0.0 0.00 0.00 0.00 89 1097.0
20260502043303 3 0 0.0 0.0 0.00 0.00 0.00 89 1096.9
20260502043203 3 0 0.0 0.0 0.00 0.00 0.00 89 1097.1
20260502043103 3 0 0.0 0.0 0.00 0.00 0.00 89 1096.8
20260502043003 3 0 0.0 0.0 0.00 0.00 0.00 89 1096.8
20260502042903 3 0 0.0 0.0 0.00 0.00 0.00 89 1097.0
20260502042803 3 0 0.0 0.0 0.00 0.00 0.00 90 1096.9
20260502042717 3 0 0.0 0.0 0.00 0.00 0.00 90 1097.0
20260502042703 3 0 0.0 0.0 0.00 0.00 0.00 90 1097.0
20260502042603 3 0 0.0 0.0 0.00 0.00 0.00 90 1096.8
20260502042403 2 0 0.0 0.0 0.00 0.00 0.00 90 1096.8
20260502042305 2 0 0.0 0.0 0.00 0.00 0.00 90 1097.0
20260502042203 2 0 0.0 0.0 0.00 0.00 0.00 90 1097.0
20260502042103 2 0 0.0 0.0 0.00 0.00 0.00 90 1097.0
20260502042003 2 0 0.0 0.0 0.00 0.00 0.00 90 1096.8
20260502041903 2 0 0.0 0.0 0.00 0.00 0.00 90 1096.8
20260502041803 2 0 0.0 0.0 0.00 0.00 0.00 90 1096.8
20260502041703 2 0 0.0 0.0 0.00 0.00 0.00 90 1096.6
20260502041603 2 0 0.0 0.0 0.00 0.00 0.00 90 1096.9
20260502041303 2 0 0.0 0.0 0.00 0.00 0.00 90 1096.9
20260502041203 2 0 0.0 0.0 0.00 0.00 0.00 90 1097.0
20260502041103 2 0 0.0 0.0 0.00 0.00 0.00 90 1096.8
20260502041003 2 0 0.0 0.0 0.00 0.00 0.00 90 1096.6
20260502040703 2 0 0.0 0.0 0.00 0.00 0.00 89 1096.8
20260502040603 2 0 0.0 0.0 0.00 0.00 0.00 89 1096.8
20260502040503 2 0 0.0 0.0 0.00 0.00 0.00 89 1096.5
20260502040403 2 0 0.0 0.0 0.00 0.00 0.00 89 1096.9
20260502040303 2 0 0.0 0.0 0.00 0.00 0.00 90 1096.8
20260502040203 2 0 0.0 0.0 0.00 0.00 0.00 90 1096.8
20260502040003 2 0 0.0 0.0 0.00 0.00 0.00 90 1096.8
20260502035903 2 0 0.0 0.0 0.00 0.00 0.00 91 1096.8
20260502035803 2 0 0.0 0.0 0.00 0.00 0.00 91 1096.9
20260502035703 2 0 0.0 0.0 0.00 0.00 0.00 91 1096.9
20260502035603 2 0 0.0 0.0 0.00 0.00 0.00 91 1096.9
20260502035403 2 0 0.0 0.0 0.00 0.00 0.00 90 1096.7
20260502035306 2 0 0.0 0.0 0.00 0.00 0.00 89 1096.8
20260502035203 2 0 0.0 0.0 0.00 0.00 0.00 89 1096.7
20260502035103 2 0 0.0 0.0 0.00 0.00 0.00 89 1096.8
20260502035003 2 0 0.0 0.0 0.00 0.00 0.00 89 1096.7
20260502034903 2 0 0.0 0.0 0.00 0.00 0.00 89 1096.5
20260502034703 2 0 0.0 0.0 0.00 0.00 0.00 90 1096.9
20260502034603 2 0 0.0 0.0 0.00 0.00 0.00 91 1096.8
20260502034503 2 0 0.0 0.0 0.00 0.00 0.00 91 1096.7
20260502034403 2 0 0.0 0.0 0.00 0.00 0.00 91 1096.7
20260502034303 2 0 0.0 0.0 0.00 0.00 0.00 90 1096.7
20260502034103 2 0 0.0 0.0 0.00 0.00 0.00 89 1096.7
20260502034003 2 0 0.0 0.0 0.00 0.00 0.00 89 1096.7
20260502033803 2 0 0.0 0.0 0.00 0.00 0.00 89 1096.6
20260502033703 2 0 0.0 0.0 0.00 0.00 0.00 90 1096.7
20260502033603 2 0 0.0 0.0 0.00 0.00 0.00 90 1096.7
20260502033503 2 0 0.0 0.0 0.00 0.00 0.00 89 1096.7
20260502033403 2 0 0.0 0.0 0.00 0.00 0.00 89 1096.7
20260502033303 2 0 0.0 0.0 0.00 0.00 0.00 89 1096.7
20260502033203 2 0 0.0 0.0 0.00 0.00 0.00 89 1096.7
20260502033103 2 0 0.0 0.0 0.00 0.00 0.00 89 1096.6
20260502033003 2 0 0.0 0.0 0.00 0.00 0.00 90 1096.9
20260502032903 2 0 0.0 0.0 0.00 0.00 0.00 91 1096.6
20260502032803 2 0 0.0 0.0 0.00 0.00 0.00 90 1096.8
20260502032703 2 0 0.0 0.0 0.00 0.00 0.00 90 1096.8
20260502032603 2 0 0.0 0.0 0.00 0.00 0.00 90 1096.8
20260502032503 2 0 0.0 0.0 0.00 0.00 0.00 90 1096.7
20260502032305 1 0 0.0 0.0 0.00 0.00 0.00 89 1096.6
20260502032203 1 0 0.0 0.0 0.00 0.00 0.00 88 1096.7
20260502032103 1 0 0.0 0.0 0.00 0.00 0.00 88 1096.8
20260502032003 1 0 0.0 0.0 0.00 0.00 0.00 87 1096.6
20260502031803 1 0 0.0 0.0 0.00 0.00 0.00 87 1096.6
20260502031703 1 0 0.0 0.0 0.00 0.00 0.00 87 1096.9
20260502031603 1 0 0.0 0.0 0.00 0.00 0.00 87 1096.6
20260502031503 1 0 0.0 0.0 0.00 0.00 0.00 87 1096.6
20260502031403 2 0 0.0 0.0 0.00 0.00 0.00 87 1096.7
20260502031303 2 0 0.0 0.0 0.00 0.00 0.00 87 1096.8
20260502031203 2 0 0.0 0.0 0.00 0.00 0.00 87 1096.8
20260502031103 2 0 0.0 0.0 0.00 0.00 0.00 87 1096.8
20260502031003 2 0 0.0 0.0 0.00 0.00 0.00 87 1096.7
20260502030903 2 0 0.0 0.0 0.00 0.00 0.00 87 1096.7
20260502030803 2 0 0.0 0.0 0.00 0.00 0.00 87 1096.9
20260502030703 2 0 0.0 0.0 0.00 0.00 0.00 87 1096.9
20260502030603 2 0 0.0 0.0 0.00 0.00 0.00 88 1096.7
20260502030403 2 0 0.0 0.0 0.00 0.00 0.00 88 1096.6
20260502030303 2 0 0.0 0.0 0.00 0.00 0.00 88 1096.7
20260502030203 2 0 0.0 0.0 0.00 0.00 0.00 88 1096.9
20260502030003 2 0 0.0 0.0 0.00 0.00 0.00 87 1096.6
20260502025903 2 0 0.0 0.0 0.00 0.00 0.00 88 1096.9
20260502025803 2 0 0.0 0.0 0.00 0.00 0.00 88 1096.9
20260502025703 2 0 0.0 0.0 0.00 0.00 0.00 88 1097.0
20260502025603 2 0 0.0 0.0 0.00 0.00 0.00 87 1096.7
20260502025503 2 0 0.0 0.0 0.00 0.00 0.00 87 1096.7
20260502025403 2 0 0.0 0.0 0.00 0.00 0.00 87 1096.8
20260502025306 2 0 0.0 0.0 0.00 0.00 0.00 87 1096.9
20260502025203 2 0 0.0 0.0 0.00 0.00 0.00 87 1096.7
20260502025003 2 0 0.0 0.0 0.00 0.00 0.00 87 1096.8
20260502024903 2 0 0.0 0.0 0.00 0.00 0.00 86 1096.7
20260502024817 2 0 0.0 0.0 0.00 0.00 0.00 86 1096.8
20260502024803 2 0 0.0 0.0 0.00 0.00 0.00 87 1096.8
20260502024703 2 0 0.0 0.0 0.00 0.00 0.00 87 1097.1
20260502024503 2 0 0.0 0.0 0.00 0.00 0.00 87 1096.8
20260502024403 2 0 0.0 0.0 0.00 0.00 0.00 87 1097.0
20260502024303 2 0 0.0 0.0 0.00 0.00 0.00 87 1096.7
20260502024203 2 0 0.0 0.0 0.00 0.00 0.00 87 1096.8
20260502024003 2 0 0.0 0.0 0.00 0.00 0.00 87 1097.0
20260502023903 2 0 0.0 0.0 0.00 0.00 0.00 87 1096.9
20260502023803 2 0 0.0 0.0 0.00 0.00 0.00 87 1097.0
20260502023718 2 0 0.0 0.0 0.00 0.00 0.00 87 1097.0
20260502023403 2 0 0.0 0.0 0.00 0.00 0.00 88 1097.0
20260502023303 2 0 0.0 0.0 0.00 0.00 0.00 88 1096.8
20260502023203 2 0 0.0 0.0 0.00 0.00 0.00 89 1096.9
20260502023103 2 0 0.0 0.0 0.00 0.00 0.00 88 1096.6
20260502023003 2 0 0.0 0.0 0.00 0.00 0.00 87 1096.9
20260502022903 2 0 0.0 0.0 0.00 0.00 0.00 87 1097.1
20260502022803 2 0 0.0 0.0 0.00 0.00 0.00 87 1097.1
20260502022703 2 0 0.0 0.0 0.00 0.00 0.00 87 1096.8
20260502022603 2 0 0.0 0.0 0.00 0.00 0.00 87 1096.9
20260502022403 2 0 0.0 0.0 0.00 0.00 0.00 88 1096.8
20260502022306 2 0 0.0 0.0 0.00 0.00 0.00 89 1097.1
20260502022203 2 0 0.0 0.0 0.00 0.00 0.00 88 1097.1
20260502022103 2 0 0.0 0.0 0.00 0.00 0.00 87 1096.7
20260502022003 2 0 0.0 0.0 0.00 0.00 0.00 87 1097.0
20260502021903 2 0 0.0 0.0 0.00 0.00 0.00 87 1096.9
20260502021803 2 0 0.0 0.0 0.00 0.00 0.00 87 1096.7
20260502021703 2 0 0.0 0.0 0.00 0.00 0.00 87 1097.1
20260502021603 2 0 0.0 0.0 0.00 0.00 0.00 87 1097.0
20260502021503 2 0 0.0 0.0 0.00 0.00 0.00 86 1096.9
20260502021403 2 0 0.0 0.0 0.00 0.00 0.00 86 1096.7
20260502021203 2 0 0.0 0.0 0.00 0.00 0.00 87 1096.7
20260502021103 2 0 0.0 0.0 0.00 0.00 0.00 87 1097.0
20260502020903 2 0 0.0 0.0 0.00 0.00 0.00 87 1096.9
20260502020803 2 0 0.0 0.0 0.00 0.00 0.00 87 1096.8
20260502020703 2 0 0.0 0.0 0.00 0.00 0.00 88 1096.9
20260502020603 2 0 0.0 0.0 0.00 0.00 0.00 87 1097.0
20260502020503 2 0 0.0 0.0 0.00 0.00 0.00 86 1096.9
20260502020403 2 0 0.0 0.0 0.00 0.00 0.00 86 1097.1
20260502020303 2 0 0.0 0.0 0.00 0.00 0.00 86 1096.8
20260502020203 2 0 0.0 0.0 0.00 0.00 0.00 86 1097.0
20260502020003 2 0 0.0 0.0 0.00 0.00 0.00 86 1096.8
20260502015903 2 0 0.0 0.0 0.00 0.00 0.00 85 1096.8
20260502015703 2 0 0.0 0.0 0.00 0.00 0.00 85 1097.2
20260502015603 2 0 0.0 0.0 0.00 0.00 0.00 85 1097.0
20260502015503 2 0 0.0 0.0 0.00 0.00 0.00 85 1097.0
20260502015403 3 0 0.0 0.0 0.00 0.00 0.00 85 1097.0
20260502015305 3 0 0.0 0.0 0.00 0.00 0.00 85 1097.1
20260502015103 3 0 0.0 0.0 0.00 0.00 0.00 85 1097.2
20260502015003 3 0 0.0 0.0 0.00 0.00 0.00 85 1097.2
20260502014903 3 0 0.0 0.0 0.00 0.00 0.00 85 1097.2
20260502014803 3 0 0.0 0.0 0.00 0.00 0.00 85 1097.2
20260502014703 3 0 0.0 0.0 0.00 0.00 0.00 86 1097.1
20260502014603 3 0 0.0 0.0 0.00 0.00 0.00 86 1097.1
20260502014503 3 0 0.0 0.0 0.00 0.00 0.00 86 1097.1
20260502014303 3 0 0.0 0.0 0.00 0.00 0.00 86 1097.0
20260502014203 3 0 0.0 0.0 0.00 0.00 0.00 86 1097.1
20260502014103 3 0 0.0 0.0 0.00 0.00 0.00 86 1097.1
20260502014003 3 0 0.0 0.0 0.00 0.00 0.00 86 1097.1
20260502013903 3 0 0.0 0.0 0.00 0.00 0.00 86 1096.9
20260502013803 3 0 0.0 0.0 0.00 0.00 0.00 86 1097.1
20260502013703 3 0 0.0 0.0 0.00 0.00 0.00 86 1097.3
20260502013603 3 0 0.0 0.0 0.00 0.00 0.00 86 1096.9
20260502013503 3 0 0.0 0.0 0.00 0.00 0.00 86 1097.1
20260502013403 3 0 0.0 0.0 0.00 0.00 0.00 85 1097.3
20260502013303 3 0 0.0 0.0 0.00 0.00 0.00 86 1097.1
20260502013103 3 340 0.0 3.2 0.00 0.00 0.00 86 1097.2
20260502013003 3 340 0.0 3.2 0.00 0.00 0.00 86 1096.9
20260502012903 3 340 0.0 3.2 0.00 0.00 0.00 88 1097.2
20260502012803 3 340 0.0 3.2 0.00 0.00 0.00 87 1097.0
20260502012703 3 340 0.0 3.2 0.00 0.00 0.00 86 1097.1
20260502012603 3 340 0.0 3.2 0.00 0.00 0.00 86 1097.1
20260502012503 3 340 0.0 3.2 0.00 0.00 0.00 86 1097.1
20260502012403 3 340 0.0 3.2 0.00 0.00 0.00 85 1097.1
20260502012306 3 340 0.0 3.2 0.00 0.00 0.00 85 1097.1
20260502012203 3 327 0.0 3.2 0.00 0.00 0.00 85 1097.0
20260502012103 3 0 0.0 0.0 0.00 0.00 0.00 85 1097.1
20260502012003 3 0 0.0 0.0 0.00 0.00 0.00 85 1097.2
20260502011916 3 0 0.0 0.0 0.00 0.00 0.00 85 1097.2
20260502011603 3 0 0.0 0.0 0.00 0.00 0.00 85 1097.3
20260502011503 3 0 0.0 0.0 0.00 0.00 0.00 85 1097.0
20260502011403 3 0 0.0 0.0 0.00 0.00 0.00 86 1097.4
20260502011303 3 0 0.0 0.0 0.00 0.00 0.00 86 1097.1
20260502011203 3 0 0.0 0.0 0.00 0.00 0.00 86 1097.3
20260502011103 3 0 0.0 0.0 0.00 0.00 0.00 86 1097.3
20260502011003 3 0 0.0 0.0 0.00 0.00 0.00 86 1097.3
20260502010903 3 0 0.0 0.0 0.00 0.00 0.00 87 1097.1
20260502010803 3 18 0.0 1.6 0.00 0.00 0.00 86 1097.3
20260502010603 3 18 0.0 1.6 0.00 0.00 0.00 85 1097.3
20260502010503 3 21 0.0 1.6 0.00 0.00 0.00 85 1097.2
20260502010403 3 23 0.0 1.6 0.00 0.00 0.00 85 1097.2
20260502010303 3 25 0.0 1.6 0.00 0.00 0.00 85 1097.3
20260502010203 3 26 0.0 1.6 0.00 0.00 0.00 85 1097.4
20260502010003 3 26 0.0 1.6 0.00 0.00 0.00 85 1097.2
20260502005903 3 26 0.0 1.6 0.00 0.00 0.00 85 1097.3
20260502005803 3 27 0.0 1.6 0.00 0.00 0.00 85 1097.3
20260502005703 3 31 0.0 1.6 0.00 0.00 0.00 85 1097.3
20260502005603 3 34 0.0 1.6 0.00 0.00 0.00 85 1097.4
20260502005503 3 33 0.0 1.6 0.00 0.00 0.00 85 1097.2
20260502005403 3 32 0.0 1.6 0.00 0.00 0.00 85 1097.3
20260502005306 4 30 0.0 1.6 0.00 0.00 0.00 85 1097.2
20260502005203 4 0 0.0 0.0 0.00 0.00 0.00 85 1097.2
20260502005103 4 0 0.0 0.0 0.00 0.00 0.00 85 1097.4
20260502005003 4 0 0.0 0.0 0.00 0.00 0.00 85 1097.5
20260502004903 4 0 0.0 0.0 0.00 0.00 0.00 85 1097.3
20260502004817 4 0 0.0 0.0 0.00 0.00 0.00 85 1097.3
20260502004703 4 0 0.0 0.0 0.00 0.00 0.00 85 1097.5
20260502004503 4 0 0.0 0.0 0.00 0.00 0.00 84 1097.2
20260502004403 4 343 0.0 1.6 0.00 0.00 0.00 84 1097.4
20260502004303 4 342 0.0 1.6 0.00 0.00 0.00 84 1097.4
20260502004203 4 341 0.0 1.6 0.00 0.00 0.00 84 1097.5
20260502004103 4 341 0.0 1.6 0.00 0.00 0.00 84 1097.5
20260502004018 4 341 0.0 1.6 0.00 0.00 0.00 84 1097.3
20260502003903 4 341 0.0 1.6 0.00 0.00 0.00 84 1097.4
20260502003703 4 341 0.0 1.6 0.00 0.00 0.00 84 1097.4
20260502003618 4 334 0.0 1.6 0.00 0.00 0.00 85 1097.5
20260502003603 4 324 0.0 3.2 0.00 0.00 0.00 85 1097.5
20260502003503 4 309 0.0 3.2 0.00 0.00 0.00 85 1097.4
20260502003303 4 295 0.0 3.2 0.00 0.00 0.00 84 1097.3
20260502003203 4 288 0.0 3.2 0.00 0.00 0.00 85 1097.4
20260502003103 4 288 0.0 3.2 0.00 0.00 0.00 84 1097.2
20260502003003 4 288 0.0 3.2 0.00 0.00 0.00 85 1097.2
20260502002903 4 288 0.0 3.2 0.00 0.00 0.00 85 1097.5
20260502002803 4 286 0.0 3.2 0.00 0.00 0.00 83 1097.3
20260502002717 4 285 0.0 3.2 0.00 0.00 0.00 83 1097.3
20260502002703 4 289 0.0 3.2 0.00 0.00 0.00 83 1097.3
20260502002618 4 293 0.0 3.2 0.00 0.00 0.00 84 1097.3
20260502002603 4 292 0.0 3.2 0.00 0.00 0.00 84 1097.3
20260502002317 5 301 1.6 4.8 0.00 0.00 0.00 84 1097.3
20260502002305 5 299 1.6 4.8 0.00 0.00 0.00 84 1097.3
20260502002203 5 294 1.6 4.8 0.00 0.00 0.00 84 1097.4
20260502002003 5 291 1.6 4.8 0.00 0.00 0.00 84 1097.5
20260502001903 5 294 1.6 4.8 0.00 0.00 0.00 84 1097.3
20260502001803 5 298 1.6 4.8 0.00 0.00 0.00 84 1097.5
20260502001703 5 301 1.6 4.8 0.00 0.00 0.00 84 1097.4
20260502001603 5 303 1.6 4.8 0.00 0.00 0.00 84 1097.4
20260502001503 5 308 1.6 3.2 0.00 0.00 0.00 84 1097.5
20260502001403 5 313 1.6 4.8 0.00 0.00 0.00 84 1097.3
20260502001303 5 320 1.6 4.8 0.00 0.00 0.00 84 1097.3
20260502001203 5 328 1.6 4.8 0.00 0.00 0.00 84 1097.4
20260502001103 5 335 1.6 4.8 0.00 0.00 0.00 85 1097.4
20260502001003 5 338 1.6 4.8 0.00 0.00 0.00 84 1097.4
20260502000903 5 339 1.6 4.8 0.00 0.00 0.00 84 1097.4
20260502000803 5 339 1.6 4.8 0.00 0.00 0.00 84 1097.3
20260502000703 5 341 1.6 4.8 0.00 0.00 0.00 84 1097.4
20260502000603 5 342 1.6 4.8 0.00 0.00 0.00 85 1097.4
20260502000503 5 342 1.6 4.8 0.00 0.00 0.00 84 1097.3
20260502000403 5 345 0.0 3.2 0.00 0.00 0.00 85 1097.3
20260502000303 5 345 0.0 3.2 0.00 0.00 0.00 83 1097.6
20260502000204 5 345 0.0 3.2 0.00 0.00 0.00 83 1097.4
20260502000003 5 344 0.0 3.2 0.00 0.00 0.00 84 1097.4
20260501235903 5 344 0.0 3.2 0.00 0.00 0.00 84 1097.4
20260501235803 5 10 0.0 3.2 0.00 0.00 0.00 84 1097.6
20260501235703 5 0 0.0 0.0 0.00 0.00 0.00 85 1097.4
20260501235603 5 0 0.0 0.0 0.00 0.00 0.00 83 1097.5
20260501235305 5 0 0.0 0.0 0.00 0.00 0.00 83 1097.4
20260501235203 5 0 0.0 0.0 0.00 0.00 0.00 83 1097.6
20260501235103 5 0 0.0 0.0 0.00 0.00 0.00 84 1097.5
20260501234903 5 0 0.0 0.0 0.00 0.00 0.00 84 1097.6
20260501234803 5 0 0.0 0.0 0.00 0.00 0.00 83 1097.5
20260501234703 5 0 0.0 0.0 0.00 0.00 0.00 83 1097.4
20260501234603 5 0 0.0 0.0 0.00 0.00 0.00 83 1097.5
20260501234518 5 337 0.0 1.6 0.00 0.00 0.00 82 1097.5
20260501234503 5 336 0.0 1.6 0.00 0.00 0.00 82 1097.5
20260501234403 5 333 0.0 1.6 0.00 0.00 0.00 83 1097.3
20260501234203 5 330 0.0 1.6 0.00 0.00 0.00 82 1097.4
20260501234103 5 335 0.0 3.2 0.00 0.00 0.00 83 1097.2
20260501234003 5 337 0.0 3.2 0.00 0.00 0.00 83 1097.4
20260501233903 5 336 0.0 3.2 0.00 0.00 0.00 83 1097.5
20260501233803 5 333 1.6 3.2 0.00 0.00 0.00 83 1097.4
20260501233703 5 333 1.6 3.2 0.00 0.00 0.00 83 1097.5
20260501233603 5 334 1.6 3.2 0.00 0.00 0.00 83 1097.5
20260501233503 5 334 1.6 3.2 0.00 0.00 0.00 83 1097.2
20260501233403 5 334 1.6 3.2 0.00 0.00 0.00 82 1097.5
20260501233303 5 335 1.6 3.2 0.00 0.00 0.00 82 1097.4
20260501233203 5 336 1.6 3.2 0.00 0.00 0.00 83 1097.4
20260501233116 5 334 1.6 3.2 0.00 0.00 0.00 83 1097.4
20260501233103 5 335 1.6 3.2 0.00 0.00 0.00 83 1097.4
20260501233003 5 334 1.6 3.2 0.00 0.00 0.00 83 1097.5
20260501232918 5 334 1.6 3.2 0.00 0.00 0.00 83 1097.3
20260501232803 5 336 1.6 3.2 0.00 0.00 0.00 84 1097.5
20260501232603 5 337 0.0 3.2 0.00 0.00 0.00 84 1097.6
20260501232503 5 338 0.0 3.2 0.00 0.00 0.00 84 1097.4
20260501232403 5 338 0.0 3.2 0.00 0.00 0.00 83 1097.5
20260501232305 5 338 1.6 3.2 0.00 0.00 0.00 83 1097.5
20260501232203 5 337 1.6 3.2 0.00 0.00 0.00 83 1097.6
20260501232103 5 338 0.0 3.2 0.00 0.00 0.00 83 1097.4
20260501232003 5 338 0.0 3.2 0.00 0.00 0.00 82 1097.5
20260501231903 5 338 0.0 3.2 0.00 0.00 0.00 82 1097.5
20260501231803 5 338 0.0 3.2 0.00 0.00 0.00 82 1097.4
20260501231617 5 338 0.0 3.2 0.00 0.00 0.00 83 1097.2
20260501231503 5 338 0.0 3.2 0.00 0.00 0.00 84 1097.4
20260501231303 5 354 0.0 3.2 0.00 0.00 0.00 81 1097.5
20260501231203 5 358 0.0 3.2 0.00 0.00 0.00 81 1097.6
20260501231103 5 359 1.6 3.2 0.00 0.00 0.00 82 1097.7
20260501231003 5 358 1.6 3.2 0.00 0.00 0.00 82 1097.5
20260501230903 5 356 1.6 4.8 0.00 0.00 0.00 82 1097.6
20260501230803 5 358 1.6 4.8 0.00 0.00 0.00 82 1097.5
20260501230703 5 357 1.6 4.8 0.00 0.00 0.00 82 1097.8
20260501230603 5 356 1.6 4.8 0.00 0.00 0.00 82 1097.7
20260501230518 5 354 3.2 4.8 0.00 0.00 0.00 82 1097.8
20260501230403 5 351 3.2 4.8 0.00 0.00 0.00 82 1097.8
20260501230203 5 347 3.2 4.8 0.00 0.00 0.00 82 1097.8
20260501230118 5 346 3.2 4.8 0.00 0.00 0.00 82 1097.7
20260501230003 5 344 3.2 4.8 0.00 0.00 0.00 83 1097.9
20260501225803 5 340 1.6 4.8 0.00 0.00 0.00 83 1097.7
20260501225703 5 337 1.6 4.8 0.00 0.00 0.00 83 1097.7
20260501225603 5 337 1.6 4.8 0.00 0.00 0.00 83 1098.1
20260501225503 5 336 1.6 4.8 0.00 0.00 0.00 82 1097.6
20260501225403 5 335 1.6 4.8 0.00 0.00 0.00 82 1097.8
20260501225305 5 336 1.6 3.2 0.00 0.00 0.00 82 1097.9
20260501225203 5 340 1.6 3.2 0.00 0.00 0.00 82 1097.7
20260501225103 5 341 1.6 3.2 0.00 0.00 0.00 82 1097.7
20260501225003 5 342 1.6 3.2 0.00 0.00 0.00 82 1097.8
20260501224903 5 342 1.6 3.2 0.00 0.00 0.00 82 1097.9
20260501224717 5 343 1.6 3.2 0.00 0.00 0.00 82 1097.8
20260501224603 5 344 1.6 3.2 0.00 0.00 0.00 81 1097.8
20260501224403 5 345 0.0 3.2 0.00 0.00 0.00 81 1097.8
20260501224303 5 346 0.0 3.2 0.00 0.00 0.00 80 1097.7
20260501224203 5 343 0.0 3.2 0.00 0.00 0.00 81 1097.7
20260501224103 5 339 0.0 3.2 0.00 0.00 0.00 81 1097.7
20260501224003 5 338 0.0 3.2 0.00 0.00 0.00 81 1097.7
20260501223803 5 0 0.0 0.0 0.00 0.00 0.00 81 1097.8
20260501223703 5 0 0.0 0.0 0.00 0.00 0.00 82 1097.7
20260501223603 5 0 0.0 0.0 0.00 0.00 0.00 81 1097.8
20260501223503 5 0 0.0 0.0 0.00 0.00 0.00 81 1097.9
20260501223403 5 0 0.0 0.0 0.00 0.00 0.00 80 1097.8
20260501223303 5 359 0.0 1.6 0.00 0.00 0.00 80 1097.8
20260501223203 5 358 0.0 1.6 0.00 0.00 0.00 80 1097.8
20260501223103 5 350 0.0 3.2 0.00 0.00 0.00 80 1097.9
20260501222903 5 348 0.0 3.2 0.00 0.00 0.00 80 1098.1
20260501222803 5 348 0.0 3.2 0.00 0.00 0.00 80 1097.9
20260501222703 5 348 0.0 3.2 0.00 0.00 0.00 80 1098.1
20260501222503 6 348 0.0 3.2 0.00 0.00 0.00 80 1097.8
20260501222403 6 348 0.0 3.2 0.00 0.00 0.00 80 1097.8
20260501222103 6 340 0.0 3.2 0.00 0.00 0.00 80 1097.9
20260501222003 6 0 0.0 0.0 0.00 0.00 0.00 80 1098.1
20260501221903 6 0 0.0 0.0 0.00 0.00 0.00 80 1098.1
20260501221803 6 0 0.0 0.0 0.00 0.00 0.00 80 1097.9
20260501221703 6 0 0.0 0.0 0.00 0.00 0.00 80 1098.1
20260501221605 6 0 0.0 0.0 0.00 0.00 0.00 81 1097.8
20260501221503 6 0 0.0 0.0 0.00 0.00 0.00 80 1097.9
20260501221403 6 0 0.0 0.0 0.00 0.00 0.00 80 1097.9
20260501221303 6 0 0.0 0.0 0.00 0.00 0.00 80 1097.7
20260501221103 6 0 0.0 0.0 0.00 0.00 0.00 81 1098.2
20260501221003 6 0 0.0 0.0 0.00 0.00 0.00 82 1097.9
20260501220903 6 0 0.0 0.0 0.00 0.00 0.00 79 1097.9
20260501220803 6 0 0.0 0.0 0.00 0.00 0.00 80 1097.9
20260501220703 6 0 0.0 0.0 0.00 0.00 0.00 80 1097.9
20260501220603 6 0 0.0 0.0 0.00 0.00 0.00 80 1097.9
20260501220518 6 0 0.0 0.0 0.00 0.00 0.00 80 1097.8
20260501220403 6 0 0.0 0.0 0.00 0.00 0.00 80 1098.1
20260501220203 6 0 0.0 0.0 0.00 0.00 0.00 79 1098.2
20260501215803 6 0 0.0 0.0 0.00 0.00 0.00 79 1097.9
20260501215703 6 0 0.0 0.0 0.00 0.00 0.00 79 1098.1
20260501215603 6 0 0.0 0.0 0.00 0.00 0.00 80 1097.7
20260501215518 6 0 0.0 0.0 0.00 0.00 0.00 80 1098.2
20260501215403 6 0 0.0 0.0 0.00 0.00 0.00 79 1097.8
20260501215203 6 0 0.0 0.0 0.00 0.00 0.00 79 1098.1
20260501215103 6 0 0.0 0.0 0.00 0.00 0.00 79 1098.3
20260501215003 6 0 0.0 0.0 0.00 0.00 0.00 80 1098.1
20260501214703 6 0 0.0 0.0 0.00 0.00 0.00 79 1097.8
20260501214603 6 0 0.0 0.0 0.00 0.00 0.00 78 1098.2
20260501214518 6 0 0.0 0.0 0.00 0.00 0.00 78 1098.2
20260501214403 6 0 0.0 0.0 0.00 0.00 0.00 79 1098.1
20260501214203 6 0 0.0 0.0 0.00 0.00 0.00 80 1097.9
20260501214103 6 0 0.0 0.0 0.00 0.00 0.00 80 1097.9
20260501214003 6 0 0.0 0.0 0.00 0.00 0.00 79 1097.9
20260501213903 6 0 0.0 0.0 0.00 0.00 0.00 80 1097.8
20260501213803 6 0 0.0 0.0 0.00 0.00 0.00 77 1098.1
20260501213703 6 0 0.0 0.0 0.00 0.00 0.00 76 1097.9
20260501213603 6 0 0.0 0.0 0.00 0.00 0.00 77 1097.9
20260501213503 6 0 0.0 0.0 0.00 0.00 0.00 77 1097.8
20260501213403 6 0 0.0 0.0 0.00 0.00 0.00 76 1098.1
20260501213303 6 0 0.0 0.0 0.00 0.00 0.00 76 1097.8
20260501213203 6 0 0.0 0.0 0.00 0.00 0.00 76 1097.7
20260501213103 6 0 0.0 0.0 0.00 0.00 0.00 76 1097.6
20260501213003 6 0 0.0 0.0 0.00 0.00 0.00 76 1097.8
20260501212903 6 0 0.0 0.0 0.00 0.00 0.00 77 1098.1
20260501212703 7 0 0.0 0.0 0.00 0.00 0.00 76 1097.9
20260501212603 7 0 0.0 0.0 0.00 0.00 0.00 76 1098.1
20260501212503 7 0 0.0 0.0 0.00 0.00 0.00 75 1097.9
20260501212403 7 0 0.0 0.0 0.00 0.00 0.00 75 1098.1
20260501212306 7 0 0.0 0.0 0.00 0.00 0.00 76 1098.1
20260501212203 7 0 0.0 0.0 0.00 0.00 0.00 76 1097.9
20260501212103 7 0 0.0 0.0 0.00 0.00 0.00 76 1097.7
20260501212003 7 0 0.0 0.0 0.00 0.00 0.00 76 1097.9
20260501211703 7 0 0.0 0.0 0.00 0.00 0.00 78 1097.9
20260501211603 7 0 0.0 0.0 0.00 0.00 0.00 77 1098.1
20260501211403 7 0 0.0 0.0 0.00 0.00 0.00 77 1097.7
20260501211303 7 0 0.0 0.0 0.00 0.00 0.00 76 1097.8
20260501211203 7 0 0.0 0.0 0.00 0.00 0.00 77 1097.8
20260501211103 7 0 0.0 0.0 0.00 0.00 0.00 76 1097.8
20260501211003 7 0 0.0 0.0 0.00 0.00 0.00 75 1097.8
20260501210903 7 0 0.0 0.0 0.00 0.00 0.00 74 1097.8
20260501210803 7 0 0.0 0.0 0.00 0.00 0.00 74 1097.8
20260501210703 7 0 0.0 0.0 0.00 0.00 0.00 74 1097.8
20260501210603 7 0 0.0 0.0 0.00 0.00 0.00 74 1097.9
20260501210504 7 0 0.0 0.0 0.00 0.00 0.00 74 1097.9
20260501210403 7 0 0.0 0.0 0.00 0.00 0.00 73 1097.9
20260501210303 7 0 0.0 0.0 0.00 0.00 0.00 73 1097.8
20260501210203 7 0 0.0 0.0 0.00 0.00 0.00 74 1097.8
20260501210103 7 0 0.0 0.0 0.00 0.00 0.00 74 1097.9
20260501210003 7 0 0.0 0.0 0.00 0.00 0.00 74 1097.9
20260501205903 7 0 0.0 0.0 0.00 0.00 0.00 75 1097.9
20260501205803 7 0 0.0 0.0 0.00 0.00 0.00 75 1098.1
20260501205703 7 0 0.0 0.0 0.00 0.00 0.00 74 1097.9
20260501205603 7 0 0.0 0.0 0.00 0.00 0.00 73 1098.2
20260501205503 7 0 0.0 0.0 0.00 0.00 0.00 73 1098.2
20260501205403 7 0 0.0 0.0 0.00 0.00 0.00 72 1097.9
20260501205306 7 0 0.0 0.0 0.00 0.00 0.00 72 1097.8
20260501205203 7 0 0.0 0.0 0.00 0.00 0.00 72 1097.9
20260501205103 8 0 0.0 0.0 0.00 0.00 0.00 72 1097.8
20260501205003 8 0 0.0 0.0 0.00 0.00 0.00 73 1097.9
20260501204903 8 0 0.0 0.0 0.00 0.00 0.00 74 1097.9
20260501204803 8 0 0.0 0.0 0.00 0.00 0.00 71 1097.7
20260501204703 8 0 0.0 0.0 0.00 0.00 0.00 71 1097.9
20260501204603 8 0 0.0 0.0 0.00 0.00 0.00 71 1097.7
20260501204503 8 0 0.0 0.0 0.00 0.00 0.00 72 1097.8
20260501204304 8 0 0.0 0.0 0.00 0.00 0.00 73 1097.8
20260501204203 8 0 0.0 0.0 0.00 0.00 0.00 72 1097.8
20260501204103 8 0 0.0 0.0 0.00 0.00 0.00 71 1098.1
20260501204003 8 0 0.0 0.0 0.00 0.00 0.00 71 1098.3
20260501203903 8 0 0.0 0.0 0.00 0.00 0.00 71 1097.9
20260501203817 8 0 0.0 0.0 0.00 0.00 0.00 72 1098.1
20260501203703 8 0 0.0 0.0 0.00 0.00 0.00 73 1097.8
20260501203503 8 0 0.0 0.0 0.00 0.00 0.00 72 1097.9
20260501203403 8 0 0.0 0.0 0.00 0.00 0.00 73 1097.8
20260501203303 8 0 0.0 0.0 0.00 0.00 0.00 72 1098.1
20260501203203 8 0 0.0 0.0 0.00 0.00 0.00 70 1098.1
20260501203117 8 0 0.0 0.0 0.00 0.00 0.00 70 1097.6
20260501203103 8 0 0.0 0.0 0.00 0.00 0.00 71 1097.6
20260501203003 8 0 0.0 0.0 0.00 0.00 0.00 72 1097.8
20260501202803 8 0 0.0 0.0 0.00 0.00 0.00 72 1098.1
20260501202703 8 0 0.0 0.0 0.00 0.00 0.00 70 1097.9
20260501202603 8 0 0.0 0.0 0.00 0.00 0.00 71 1097.9
20260501202503 8 0 0.0 0.0 0.00 0.00 0.00 69 1097.9
20260501202403 8 0 0.0 0.0 0.00 0.00 0.00 71 1097.9
20260501202306 8 0 0.0 0.0 0.00 0.00 0.00 67 1098.1
20260501202203 8 0 0.0 0.0 0.00 0.00 0.00 68 1097.8
20260501202103 8 0 0.0 0.0 0.00 0.00 0.00 67 1097.7
20260501201903 8 0 0.0 0.0 0.00 0.00 0.00 68 1097.8
20260501201803 8 0 0.0 0.0 0.00 0.00 0.00 68 1097.7
20260501201703 8 0 0.0 0.0 0.00 0.00 0.00 70 1097.8
20260501201503 8 0 0.0 0.0 0.00 0.00 0.00 67 1097.9
20260501201403 8 0 0.0 0.0 0.00 0.00 0.00 68 1097.9
20260501201303 8 0 0.0 0.0 0.00 0.00 0.00 66 1097.7
20260501201203 8 0 0.0 0.0 0.00 0.00 0.00 67 1097.8
20260501201103 8 0 0.0 0.0 0.00 0.00 0.00 66 1097.8
20260501201003 8 0 0.0 0.0 0.00 0.00 0.00 66 1097.8
20260501200803 8 0 0.0 0.0 0.00 0.00 0.00 65 1097.5
20260501200703 8 0 0.0 0.0 0.00 0.00 0.00 65 1097.8
20260501200603 8 0 0.0 0.0 0.00 0.00 0.00 65 1097.8
20260501200503 9 0 0.0 0.0 0.00 0.00 0.00 65 1097.7
20260501200403 9 0 0.0 0.0 0.00 0.00 0.00 66 1097.8
20260501200303 9 0 0.0 0.0 0.00 0.00 0.00 66 1097.7